Weather History for Nanaimo, BC

Change the Weather History Date:

Monday, February 4, 2013

  Actual Average Record
Temperature  
Mean Temperature 27 °F -  
Max Temperature 46 °F 43 °F 57 °F (2011)
Min Temperature 0 °F 31 °F -7 °F (2014)
Degree Days  
Heating Degree Days 38    
Moisture  
Dew Point 32 °F    
Average Humidity 80    
Maximum Humidity 100    
Minimum Humidity 39    
Precipitation  
Precipitation 0.00 in - - ()
Sea Level Pressure  
Sea Level Pressure 29.93 in    
Wind  
Wind Speed 4 mph ()    
Max Wind Speed 15 mph    
Max Gust Speed -    
Visibility 15.6 miles    
Events Fog , Rain    
Averages and records for this station are not official NWS values.
T = Trace of Precipitation, MM = Missing Value Source: Averaged Metar Reports

Daily Weather History Graph

Daily Weather History Graph

Search for Another Location

Airport:

Trip Planner

Search our weather history database for the weather conditions in past years. The results will help you decide how hot, cold, wet, or windy it might be!

Date:

Astronomy

Feb. 04, 2013 Rise Set
Actual Time 7:41 AM PST 5:18 PM PST
Civil Twilight 7:07 AM PST 5:52 PM PST
Nautical Twilight 6:29 AM PST 6:29 PM PST
Astronomical Twilight 5:52 AM PST 7:06 PM PST
Moon 2:30 AM PST (2/4) 11:38 AM PST (2/4)
Length of Visible Light 10h 44m
Length of Day
9h 37m
Last Quarter, 36% of the Moon is Illuminated
Feb 4
Last Quarter
Feb 9
New
Feb 17
First Quarter
Feb 25
Full
Mar 4
Last Quarter

Hourly Weather History & Observations

Time (PST) Temp. Windchill Dew Point Humidity Pressure Visibility Wind Dir Wind Speed Gust Speed Precip Events Conditions
4:00 AM 11 °F - 6 °F 69% 29.64 in - NW 6.9 mph - -  
6:00 AM 37.4 °F - 35.6 °F 93% 30.10 in 15.0 mi Calm Calm - N/A Fog Shallow Fog
7:00 AM 37.4 °F - 37.4 °F 100% 30.10 in 15.0 mi Calm Calm - N/A Fog Shallow Fog
8:00 AM 37.4 °F - 35.6 °F 93% 30.10 in 15.0 mi Calm Calm - N/A Fog Shallow Fog
9:00 AM 37.4 °F - 37.4 °F 100% 30.11 in 15.0 mi Calm Calm - N/A Fog Mostly Cloudy
10:00 AM 17 °F - 3 °F 40% 29.38 in - NNW 8.1 mph - -  
10:00 AM 39.2 °F - 37.4 °F 93% 30.10 in 30.0 mi Calm Calm - N/A   Mostly Cloudy
11:00 AM 42.8 °F - 41.0 °F 93% 30.12 in 30.0 mi SSW 2.3 mph - N/A   Overcast
12:00 PM 46.4 °F 45.2 °F 42.8 °F 87% 30.10 in 30.0 mi SSW 3.5 mph - N/A   Overcast
1:00 PM 48.2 °F - 42.8 °F 82% 30.08 in 30.0 mi East 3.5 mph - N/A   Mostly Cloudy
2:00 PM 50.0 °F - 41.0 °F 71% 30.05 in 30.0 mi South 9.2 mph - N/A   Mostly Cloudy
3:00 PM 48.2 °F - 41.0 °F 76% 30.03 in 30.0 mi SE 9.2 mph - N/A   Mostly Cloudy
4:00 PM 14 °F - 0 °F 39% 29.36 in - WNW 13.8 mph - -  
4:00 PM 46.4 °F 42.9 °F 41.0 °F 81% 30.02 in 30.0 mi ESE 6.9 mph - N/A   Overcast
5:00 PM 44.6 °F 39.7 °F 41.0 °F 87% 30.00 in 30.0 mi ENE 9.2 mph - N/A   Overcast
6:00 PM 44.6 °F - 41.0 °F 87% 29.99 in 20.0 mi Calm Calm - N/A   Overcast
7:00 PM 44.6 °F 42.2 °F 41.0 °F 87% 29.96 in 20.0 mi ESE 4.6 mph - N/A   Overcast
7:07 PM - - - N/A% - 20.0 mi ESE 8.1 mph - N/A Rain Light Rain
8:00 PM 44.6 °F 40.7 °F 41.0 °F 87% 29.94 in 20.0 mi ESE 6.9 mph - N/A Rain Light Rain
8:49 PM - - - N/A% - 8.0 mi ESE 4.6 mph - N/A Rain Light Rain
9:00 PM 44.6 °F 40.7 °F 41.0 °F 87% 29.91 in 8.0 mi ESE 6.9 mph - N/A Rain Light Rain
10:00 PM -0 °F - -12 °F 40% 29.47 in - West 15.0 mph - -